Retour au catalogue

FLOCK 4BE 22

ActifScienceSSO
NORAD 60494·PAYLOAD·🇺🇸 United States

Lancé Aug 16, 2024 depuis Vandenberg Space Force Base

Loading…

Prochains Passages (prochaines 24 heures)

TLE

FraisSource: CelesTrak SupGP

Époque: Sep 14, 2026, 16:45 UTC

1 60494C 24149BH  26257.69804398  .00039829  00000+0  86877-3 0  2578
2 60494  97.3688 342.2621 0002157 311.1680 273.5848 15.44232248    14

Suivez FLOCK 4BE 22 en temps réel avec AllMySat

Download on the App Store